This demonstration page uses our WeatherBlox Daily Observations layout. Learn more.

Left ArrowRight Arrow

Hourly Observations for August 15, 2015

Temp ( °F °C ) Dew Point ( °F °C ) Humidity (%) Winds ( mph kmh ) Pressure ( in mb ) Visibility ( mi km ) Precip ( " mm )
12:53 am 00:53 Hazy 74 23.3 49 9.4 41 41 NNW 5 7 29.99 1016 4 6 0.00 0.00
1:53 am 01:53 Hazy 75 23.9 48 8.9 39 39 NW 7 11 29.99 1016 5 8 0.00 0.00
2:53 am 02:53 Clear 76 24.4 46 7.8 35 35 NNW 7 11 29.98 1015 7 11 0.00 0.00
3:53 am 03:53 Clear 74 23.3 46 7.8 37 37 NNW 8 13 29.99 1016 7 11 0.00 0.00
4:53 am 04:53 Clear 74 23.3 46 7.8 37 37 NW 8 13 29.99 1016 9 14 0.00 0.00
5:53 am 05:53 Clear 73 22.8 46 7.8 38 38 NNW 7 11 29.99 1016 10 16 0.00 0.00
6:53 am 06:53 Sunny 76 24.4 45 7.2 33 33 NNW 12 19 29.98 1015 10 16 0.00 0.00
7:53 am 07:53 Sunny 78 25.6 45 7.2 31 31 NNW 13 20 29.99 1016 10 16 0.00 0.00
8:53 am 08:53 Sunny 81 27.2 44 6.7 27 27 N 17 28 29.99 1016 10 16 0.00 0.00
9:53 am 09:53 Sunny 85 29.4 44 6.7 24 24 NNW 14 22 29.98 1015 10 16 0.00 0.00
10:53 am 10:53 Sunny 89 31.7 42 5.6 19 19 NNW 13 20 29.97 1015 10 16 0.00 0.00
11:53 am 11:53 Sunny 92 33.3 41 5 17 17 N 10 17 29.95 1014 10 16 0.00 0.00
12:53 pm 12:53 Sunny 95 35 40 4.4 15 15 NW 10 17 29.93 1013 10 16 0.00 0.00
1:53 pm 13:53 Sunny 97 36.1 36 2.2 12 12 NNW 8 13 29.91 1013 10 16 0.00 0.00
2:53 pm 14:53 Sunny 99 37.2 33 0.6 10 10 VRB 7 11 29.88 1012 10 16 0.00 0.00
3:53 pm 15:53 Sunny 101 38.3 29 -1.7 8 8 VRB 5 7 29.86 1011 10 16 0.00 0.00
4:53 pm 16:53 Sunny 102 38.9 24 -4.4 6 6 VRB 3 6 29.85 1011 10 16 0.00 0.00
5:53 pm 17:53 Sunny 102 38.9 22 -5.6 6 6 S 8 13 29.83 1010 10 16 0.00 0.00
6:53 pm 18:53 Sunny 100 37.8 26 -3.3 7 7 SSE 9 15 29.83 1010 10 16 0.00 0.00
7:53 pm 19:53 Sunny 94 34.4 28 -2.2 9 9 SE 6 9 29.83 1010 10 16 0.00 0.00
8:53 pm 20:53 Clear 89 31.7 33 0.6 14 14 S 5 7 29.85 1011 10 16 0.00 0.00
9:53 pm 21:53 Clear 81 27.2 33 0.6 18 18 Calm 29.86 1011 10 16 0.00 0.00
10:53 pm 22:53 Clear 77 25 33 0.6 20 20 Calm 29.88 1012 10 16 0.00 0.00
11:53 pm 23:53 Clear 76 24.4 33 0.6 21 21 Calm 29.88 1012 10 16 0.00 0.00

Powered by AerisWeather